Trinity Lake Weather Center

Moon Phase Calendar



Trinity Lake Water Level
Online Cameras

 


      

Current Conditions in Lewiston
12/5/2021 5:38:39 AM

43°F
Feels Like 40
Clouds
Humidity
48%
Pressure
30.36"
Wind
5.6 mph (NW)
Dew Point
26°F
UV Index
0/10 (Low)
Visibility
6 mi

Hourly Forecast

Date & Time Sun, Dec 5
5:00 AM
Sun, Dec 5
6:00 AM
Sun, Dec 5
7:00 AM
Sun, Dec 5
8:00 AM
Sun, Dec 5
9:00 AM
Sun, Dec 5
10:00 AM
Sun, Dec 5
11:00 AM
Sun, Dec 5
12:00 PM
Sun, Dec 5
1:00 PM
Sun, Dec 5
2:00 PM
Sun, Dec 5
3:00 PM
Sun, Dec 5
4:00 PM
Sun, Dec 5
5:00 PM
Sun, Dec 5
6:00 PM
Sun, Dec 5
7:00 PM
Sun, Dec 5
8:00 PM
Sun, Dec 5
9:00 PM
Sun, Dec 5
10:00 PM
Sun, Dec 5
11:00 PM
Mon, Dec 6
12:00 AM
Mon, Dec 6
1:00 AM
Mon, Dec 6
2:00 AM
Mon, Dec 6
3:00 AM
Mon, Dec 6
4:00 AM
Mon, Dec 6
5:00 AM
Mon, Dec 6
6:00 AM
Mon, Dec 6
7:00 AM
Mon, Dec 6
8:00 AM
Mon, Dec 6
9:00 AM
Mon, Dec 6
10:00 AM
Mon, Dec 6
11:00 AM
Mon, Dec 6
12:00 PM
Mon, Dec 6
1:00 PM
Mon, Dec 6
2:00 PM
Mon, Dec 6
3:00 PM
Mon, Dec 6
4:00 PM
Mon, Dec 6
5:00 PM
Mon, Dec 6
6:00 PM
Mon, Dec 6
7:00 PM
Mon, Dec 6
8:00 PM
Mon, Dec 6
9:00 PM
Mon, Dec 6
10:00 PM
Mon, Dec 6
11:00 PM
Tue, Dec 7
12:00 AM
Tue, Dec 7
1:00 AM
Tue, Dec 7
2:00 AM
Tue, Dec 7
3:00 AM
Tue, Dec 7
4:00 AM
Condition
Clouds

Clouds

Clouds

Clouds

Clouds

Clouds

Clouds

Clouds

Clouds

Clouds

Clouds

Clouds

Clouds

Clouds

Clouds

Clouds

Clouds

Clouds

Clouds

Clouds

Clouds

Clouds

Clouds

Clouds

Clouds

Clouds

Clouds

Clouds

Clouds

Clouds

Clouds

Clouds

Clouds

Clouds

Clouds

Clouds

Clouds

Clouds

Clouds

Clouds

Clouds

Clouds

Clear

Clear

Clear

Clear

Clear

Clear
Temperature 43°F43°F43°F44°F48°F55°F62°F65°F66°F66°F64°F58°F52°F50°F50°F50°F50°F51°F50°F48°F49°F50°F50°F50°F49°F49°F48°F49°F51°F52°F54°F54°F56°F56°F54°F52°F49°F47°F46°F45°F45°F44°F44°F44°F44°F44°F44°F43°F
Feels Like 40°F40°F40°F41°F47°F52°F60°F63°F64°F63°F62°F55°F49°F48°F48°F48°F47°F48°F48°F46°F48°F48°F48°F48°F48°F47°F46°F48°F48°F50°F52°F52°F54°F53°F52°F50°F49°F46°F45°F43°F42°F42°F42°F41°F41°F41°F41°F41°F
Cloudiness 45%44%44%49%57%66%100%93%95%96%94%95%23%50%63%72%78%82%100%100%100%100%100%100%100%100%100%100%100%100%100%100%100%100%100%100%100%100%100%88%72%62%7%6%5%4%3%3%
Visibility 6 mi6 mi6 mi6 mi6 mi6 mi6 mi6 mi6 mi6 mi6 mi6 mi6 mi6 mi6 mi6 mi6 mi6 mi6 mi6 mi6 mi6 mi6 mi6 mi6 mi6 mi6 mi6 mi6 mi6 mi6 mi6 mi6 mi6 mi6 mi6 mi6 mi6 mi6 mi6 mi6 mi6 mi6 mi6 mi6 mi6 mi6 mi6 mi
Precipitation 0%0%0%0%0%0%0%0%0%0%0%0%0%0%0%0%0%0%0%0%0%0%0%0%0%0%2%2%2%0%0%0%0%0%0%0%0%0%0%0%0%0%0%0%0%0%0%0%
Humidity 47%48%49%50%46%39%32%30%29%31%38%49%56%59%59%57%56%54%55%58%56%55%54%54%55%56%57%58%58%54%51%54%51%53%59%65%72%74%78%81%83%84%85%86%85%85%84%83%
Dew Point 25°F26°F26°F27°F29°F31°F30°F30°F31°F32°F35°F36°F34°F34°F33°F33°F32°F32°F32°F31°F31°F31°F31°F31°F31°F31°F31°F33°F34°F34°F34°F35°F36°F36°F38°F38°F37°F37°F37°F37°F37°F37°F37°F37°F37°F37°F36°F36°F
Pressure 30.36"30.36"30.36"30.36"30.33"30.3"30.27"30.24"30.21"30.18"30.18"30.21"30.24"30.24"30.27"30.27"30.24"30.24"30.24"30.21"30.18"30.15"30.15"30.12"30.09"30.09"30.12"30.09"30.09"30.03"30.06"30.03"30"30"29.97"30"30"30.03"30.03"30.03"30.03"30.06"30.06"30.06"30.03"30.03"30.03"30.03"
Wind Speed 5.6 mph5.6 mph5.5 mph5.4 mph4 mph3.1 mph2.6 mph2.4 mph2.5 mph2.9 mph2.6 mph3.9 mph5.3 mph5.4 mph5.2 mph5.1 mph4 mph3.8 mph4.2 mph4.9 mph4.4 mph4.3 mph4.5 mph4.5 mph4 mph4.7 mph4.7 mph4.4 mph4.1 mph1.2 mph2.9 mph1.8 mph1.2 mph1.2 mph0.6 mph0.8 mph2.7 mph3.6 mph3.9 mph4.4 mph4.4 mph4.6 mph4.3 mph4.5 mph4.4 mph4.4 mph4.8 mph4.7 mph
Wind
Direction
307°
NW
306°
NW
306°
NW
308°
NW
307°
NW
301°
WNW
297°
WNW
302°
WNW
300°
WNW
295°
WNW
309°
NW
307°
NW
313°
NW
314°
NW
315°
NW
312°
NW
321°
NW
313°
NW
316°
NW
308°
NW
306°
NW
305°
NW
297°
WNW
292°
WNW
286°
WNW
290°
WNW
301°
WNW
297°
WNW
307°
NW
80°
E
317°
NW
329°
NNW
323°
NW
309°
NW
113°
ESE
346°
NNW
301°
WNW
319°
NW
316°
NW
318°
NW
317°
NW
325°
NW
323°
NW
330°
NNW
320°
NW
321°
NW
319°
NW
321°
NW

Daily Forecast

Date High Low Precip. Humidity
Today
Dec 5

Clouds
66 °F
43 °F
0%
30%
Monday
Dec 6

Clouds
56 °F
44 °F
2%
54%
Tuesday
Dec 7

Clear
63 °F
43 °F
0%
39%
Wednesday
Dec 8

Clouds
47 °F
39 °F
2%
72%
Thursday
Dec 9

Snow
44 °F
30 °F
33%
37%
Friday
Dec 10

Snow
43 °F
28 °F
39%
44%
Saturday
Dec 11

Clouds
42 °F
29 °F
0%
51%
Sunday
Dec 12

Snow
33 °F
31 °F
100%
98%
Monday
Dec 13

Snow
35 °F
32 °F
100%
100%
Tuesday
Dec 14

Rain
36 °F
35 °F
100%
100%
Wednesday
Dec 15

Snow
35 °F
29 °F
100%
100%
Thursday
Dec 16

Snow
34 °F
25 °F
93%
99%
Friday
Dec 17

Snow
35 °F
32 °F
100%
100%
Saturday
Dec 18

Rain
39 °F
36 °F
100%
100%
Sunday
Dec 19

Rain
35 °F
18 °F
84%
94%
Monday
Dec 20

Snow
30 °F
18 °F
100%
98%

Temperature 8-14 Day Outlook



Precipitation 8-14 Day Outlook




Quick Links
Trinity Lake News
Trinity Lake Photos
Trinity Lake Videos




About Us
Contact Us
Site Map
Search Site
Advertise With Us
   
Trinity.LakesOnline.com
THE TRINITY LAKE WEBSITE

Copyright 2021, Lakes Online
Privacy    |    Legal